Location: Unspecified
(38.6830°S, 0.0000°E)
Time: 03:32:05
(UTC+00:00)

Envisat - Pass Details

Date: 28 May 2019
Orbit: 764 x 766 km, 98.1° (Epoch: 15 June)

Event Time Altitude Azimuth Distance (km) Brightness Sun altitude
Rises 06:17:45 0° 19° (NNE) 3,222 6.8 -9.4°
Reaches altitude 10° 06:20:02 10° 20° (NNE) 2,304 6.1 -9.0°
Maximum altitude 06:25:06 76° 105° (ESE) 802 3.3 -8.1°
Drops below altitude 10° 06:30:15 10° 189° (S) 2,336 5.2 -7.1°
Sets 06:32:35 0° 190° (S) 3,270 5.9 -6.7°
